BREEZE-M DEB, 32043

Orbit data source: Space-Track

BREEZE-M DEB, 32043 is space debris in HEO originally from a launch on Tue, 28 Feb 2006 UTC launched from the Tyuratam Missile And Space Complex (TTMTR). Debris objects in space refer to the collection of defunct objects orbiting the Earth. Examples of debris include non-operational satellites, rocket bodies, and fragments generated from explosions, collisions, or faulty payload assembly.

Loading next visibility...
Identifier
32043, 2006-006W
Orbit
HEO
Country
Flag of CISCIS
Related business
Manufacturer
Khrunichev
Mission
Spacecraft
Bus & Motor
Unknown
Mass
Unknown
Launch date (UTC)
2006-02-28 (20 years ago)
Launch vehicle
Unknown
Launch site
Tyuratam Missile And Space Complex (TTMTR)
Object type
Payload
Rocket body
Debris
Shape & HBR
Unknown shape, 0.3 m
Radar Cross Section
Medium (>0.1 m² and <1 m²)

Expand to show TLE details & history
Last TLE update: 18 hours ago

TLE from 18 hours ago
0 BREEZE-M DEB
1 32043U 06006W   26162.35769096 -.00000042  00000-0  11235-4 0  9999
2 32043  51.6021 248.1731 5096720 336.0191   6.8885  5.19495098365646
Epoch: 2026-06-11T08:35Z
TLE epoch observation values (Epoch: 2026-06-11T08:35:04.498Z)
Latitude
-0.00019°
Longitude
-140.30556°
Altitude
734.303 km
Speed
9.154 km/s
True Right ascension
16h 32m 39s
True Declination
0° 00' 01"
Sunlit
Object was in full shadow at epoch
Visualization orbit readout
Latitude
Unknown
Longitude
Unknown
Altitude
Unknown
Speed
Unknown
Apparent Right ascension
Unknown
Apparent Declination
Unknown
Sunlit
N/A
Visualization observer readout
Local Sidereal Time
12:50:34
Azimuth
Unknown
Elevation
Unknown
Doppler factor
Unknown
Orbital elements
Apogee altitude
14,882.47 km
Perigee altitude
527.118 km
Semi-major axis
14,082.931 km
Eccentricity
0.50967
Inclination
51.6021°
RAAN
248.1731°
Arg. of periapsis
336.0191°
True anomaly
24.15884°
Mean anomaly
6.8885°
Eccentric anomaly
13.90723°
Mean motion
1.29868 °/min
Orbital period
277.2 mins
BSTAR
0.000011235
Loading maneuver chart data...
Computing Atmospheric mass density...
Loading historical data...
Loading historical data...
Loading historical data...
Loading historical data...
Loading historical data...
Loading historical data...
Loading historical data...

Documentation

Showing up to 5 results
|